POLYITAN-2-SAU (42732 NORAD) Tracking and Keplerian Element Data

This shows tracking and keplerian element data for the satellite.

Feedback or suggestion? Click here.




ElementValue
Catalog42732
NamePOLYITAN-2-SAU
Epoch Orbit8402
Epoch Day317.8254998
Epoch Year2018
RAAN303.5854
Inclination51.6304
Eccentricity0.000692
Argument of Perigee55.028
Mean Anonmoly305.1372
Mean Motion15.85132622
Decay Rate0.00087925
L11 42732U 98067MM 18317.82549980 .00087925 00000-0 36265-3 0 9999
L22 42732 51.6304 303.5854 0006920 55.0280 305.1372 15.85132622 84024

Live tracking and technical data element details for POLYITAN-2-SAU (NORAD 42732). POLYITAN-2-SAU can be tracked NOW for your location showing map with azimuth and elevation plus other details from your city location.

Track the satellite on the map from your city or location and see movement details for azimuth, elevation, latitude, longitude, range, height, and movement on the map or in text.







IsCatalogInMostPopularTable: catalog: 42732, numindb: 140
Update: records affected: 1



GetName: 42732 POLYITAN-2-SAU

Hit Count: updated at: Wed, 14 Nov 2018 10:56:17 GMT